CAPE
1095 940 848 747 792 770 825 864 759 610 563 734 814 1104 1012 991 982 773 808 671 680 920 1025 1188 1449 1382 1265 1186 1227 1327 1176 1136 1063 1003 1104 1045 1011 1168 1599 1526 1313 1082 1008 814 510 390 374 342 307 244 209 153 81 60 82 55 36 17 2 2 6 5 9 8 3 0 0 0 0 1 2 2 1 1 3 2 2 1 1 2 3 1 1 1 2
1018 934 829 734 745 862 909 781 640 453 508 780 706 971 1154 1068 960 934 658 700 741 914 1111 1156 1170 1314 1226 1292 1390 1421 1437 1230 1197 1073 1193 1264 1106 1103 1543 1285 1163 1184 961 716 725 695 507 317 270 184 87 105 108 118 158 155 67 41 28 1 0 0 0 1 0 0 9 0 0 0 0 0 1 0 1 1 0 1 2 4 3 0 1 0 0
803 807 844 817 906 1031 915 804 551 385 485 456 432 789 889 1010 1029 1027 936 895 873 901 1046 1164 1138 1125 1179 1224 1415 1317 1136 1368 1646 1067 1160 1345 1381 1238 1215 1560 1396 1283 1161 952 742 627 475 423 283 226 205 253 251 264 220 119 88 96 15 1 13 5 6 0 0 0 0 0 0 0 0 0 0 0 0 0 0 0 1 0 1 1 0 1 1
876 858 1208 1193 1153 913 1132 1075 828 517 475 529 513 710 905 774 712 851 1059 1198 954 1009 1168 1255 1230 1109 1105 1100 964 916 871 955 1373 1529 1358 1342 1326 1289 1206 1217 1470 1298 1255 1054 863 609 564 525 323 271 194 227 197 237 255 206 179 76 36 11 0 0 0 0 0 0 0 0 0 0 0 0 0 0 0 0 0 0 0 0 0 0 0 0 0
1202 1614 1356 1134 978 891 1088 994 818 612 541 566 558 696 871 802 680 778 925 1078 1089 983 961 1211 1194 1035 1062 1082 922 905 987 1048 1446 1691 1387 1138 1138 1393 1292 1262 1073 1252 1071 1173 1153 925 658 533 365 156 199 194 234 352 320 238 192 174 67 21 1 0 0 0 0 0 0 0 0 0 0 0 0 0 0 0 0 0 0 0 0 0 0 0 0
1615 1281 1082 1017 934 844 773 1034 666 506 468 588 543 871 922 963 767 816 808 1014 1042 1085 1130 968 843 986 1094 1081 1182 1094 1015 1187 1565 1656 1714 1189 1287 1325 1303 1020 720 806 682 939 904 994 851 694 561 545 248 257 400 509 416 409 392 296 166 95 84 43 1 0 0 0 0 0 0 0 0 0 0 0 0 0 0 0 0 0 0 0 0 0 0
1527 1162 928 978 824 991 714 747 693 543 554 570 594 864 981 872 746 810 842 545 609 580 573 786 655 835 1014 1063 957 876 1175 1098 1157 1179 1353 1247 1245 1219 1140 975 703 630 629 527 1452 1070 1136 924 852 753 537 372 531 706 511 502 572 420 245 249 203 125 40 12 1 2 0 0 0 0 0 0 0 0 0 0 0 0 0 0 0 0 0 0 0
1250 1160 1019 905 818 1027 822 621 653 690 674 630 661 968 936 771 687 1087 716 364 372 356 400 532 625 723 988 973 998 968 871 918 1039 956 916 952 953 1168 1557 1330 1277 762 766 770 1053 1226 1136 1008 932 970 767 687 726 679 635 692 702 680 466 416 322 291 139 240 251 250 9 0 8 6 1 0 0 0 0 0 0 0 0 0 0 0 0 0 0
1207 1107 1157 939 748 896 741 786 684 784 707 844 737 857 930 649 385 326 504 347 374 334 485 524 597 812 866 920 971 896 883 805 842 893 714 898 864 942 1361 1540 1593 993 1344 876 984 954 840 719 643 597 591 646 734 678 673 518 591 668 519 620 516 471 381 287 328 297 205 178 155 135 66 32 0 0 0 1 0 0 0 0 0 0 0 0 0
1090 989 1173 1012 946 873 663 672 763 969 961 896 833 639 575 708 393 399 366 350 323 388 486 572 603 734 782 826 958 865 655 941 733 596 663 723 1177 1050 1263 1317 1195 1169 1170 1231 1377 1166 944 527 439 394 341 380 498 571 644 595 516 629 616 634 501 451 387 444 375 321 350 313 297 248 180 130 67 9 17 12 70 36 0 0 0 0 0 0 0
1042 1042 1279 1026 916 916 708 732 800 811 777 752 616 620 449 448 487 309 355 316 345 450 536 541 620 659 624 882 911 501 525 576 491 496 652 728 652 1014 994 1185 1190 1232 1244 1162 1064 1194 1240 1172 1066 967 330 293 238 277 311 510 641 558 688 844 739 486 355 387 544 373 350 484 432 300 281 252 186 123 61 104 148 144 110 59 34 1 2 1 0
1134 1285 1096 1082 888 615 669 624 710 868 802 774 787 738 627 419 486 406 322 267 407 431 522 524 613 677 638 524 579 529 547 504 362 512 444 424 966 1082 694 590 1156 1182 1099 938 902 808 636 443 450 445 227 15 0 6 55 148 329 566 622 568 533 559 514 460 579 412 391 377 312 326 278 330 302 215 183 219 266 297 209 13 0 14 2 2 1
1160 1146 978 851 826 617 637 740 664 735 772 778 801 741 667 525 340 411 365 263 288 407 458 530 471 516 446 463 403 387 444 417 435 308 332 470 776 629 692 544 677 961 627 701 610 262 224 214 230 98 188 61 9 3 1 125 301 548 635 620 639 553 481 438 414 359 283 270 224 130 126 169 144 141 129 168 244 180 230 249 155 136 45 4 1
897 752 812 820 556 533 751 692 711 808 744 737 717 578 397 416 335 390 396 365 306 421 450 476 467 577 436 321 273 259 344 375 436 393 440 412 489 764 486 645 592 542 455 402 293 212 243 198 199 230 155 14 53 147 214 206 255 509 718 524 562 668 610 434 436 325 284 277 232 198 198 186 150 155 278 206 254 240 156 132 110 150 136 100 9
935 776 761 660 537 516 515 591 686 717 573 636 629 511 368 380 459 406 274 384 388 472 429 616 523 559 522 430 421 267 172 259 245 207 192 306 374 380 395 337 524 452 581 474 221 155 1 100 72 208 45 41 56 123 167 159 250 353 523 548 490 513 492 402 529 429 440 398 253 172 128 146 150 179 192 204 258 238 179 100 67 102 151 92 35
837 681 739 624 553 552 566 718 662 651 575 585 599 439 335 338 508 466 386 262 265 251 414 440 573 460 573 682 602 616 436 297 162 258 361 184 396 281 262 171 250 458 664 548 144 5 74 146 0 5 25 38 59 132 196 203 319 301 292 440 458 436 573 508 442 404 273 229 62 4 0 0 5 10 12 14 35 118 251 226 150 86 64 70 143
867 903 710 642 622 571 521 625 664 592 590 492 457 298 364 338 381 518 530 481 358 443 219 361 536 1037 663 368 265 513 520 254 191 70 242 444 223 178 283 195 290 442 306 220 149 165 126 0 0 0 0 1 26 125 235 297 341 253 52 33 263 425 335 276 117 51 6 2 1 0 0 0 0 0 0 1 2 11 36 96 132 147 132 135 174
789 888 816 630 620 443 443 561 588 532 497 505 443 280 397 417 386 566 555 500 516 415 291 294 442 553 640 518 923 622 516 363 344 132 101 116 358 376 194 449 447 383 189 232 176 76 0 0 0 0 0 0 0 1 75 111 186 195 40 0 0 0 35 159 56 3 0 0 0 0 0 0 0 0 0 0 0 0 1 12 40 93 128 146 177
922 922 871 792 506 381 382 485 564 560 399 455 487 356 402 408 455 516 609 413 457 542 492 447 313 352 427 758 944 574 667 368 301 174 133 86 134 135 258 275 98 45 74 56 14 1 0 0 0 0 0 0 0 0 0 0 0 0 0 0 0 0 0 0 5 0 0 0 0 0 0 0 0 0 0 0 0 0 0 0 6 21 34 35 23
833 806 880 793 559 398 396 482 530 480 324 337 380 389 402 440 495 543 497 458 552 541 553 514 673 750 363 832 761 763 897 860 457 452 314 194 102 110 144 139 110 0 1 2 2 0 0 0 0 0 0 0 0 0 0 0 0 0 0 0 0 0 0 0 0 0 0 0 0 0 0 0 0 0 0 0 0 0 0 0 0 0 1 7 12
780 724 745 701 637 582 437 543 581 526 435 470 444 400 507 511 451 414 512 640 657 762 930 859 1029 1000 461 724 772 669 519 718 696 747 425 311 146 95 78 12 2 2 2 0 0 0 0 0 0 0 0 0 0 0 0 0 0 0 0 0 0 0 0 0 0 0 0 0 0 0 0 0 0 0 0 0 0 0 0 0 0 0 0 0 0
912 933 602 610 681 727 637 643 613 489 628 750 778 682 590 578 500 422 600 789 842 858 922 1088 1120 906 820 891 792 616 541 505 640 682 650 557 393 139 43 9 3 2 0 0 0 0 0 0 0 0 0 0 0 0 0 0 0 0 0 0 0 0 0 0 0 0 0 0 0 0 0 0 0 0 0 0 0 0 0 0 0 0 0 0 0
1236 1050 653 774 699 634 697 705 692 668 707 754 928 998 986 901 794 697 610 744 812 1022 927 1030 1001 908 916 789 819 463 588 571 586 680 675 487 264 93 46 5 0 2 0 0 0 0 0 0 0 0 0 0 0 0 0 0 0 0 0 0 0 0 0 0 0 0 0 0 0 0 0 0 0 0 0 0 0 0 0 0 0 0 0 0 0
925 995 896 857 659 584 589 630 640 714 765 781 781 1087 1180 1060 1010 881 720 473 532 439 1035 1152 920 881 986 940 968 961 411 305 529 743 731 650 414 137 37 1 0 0 0 0 0 0 0 0 0 0 0 0 0 0 0 0 0 0 0 0 0 0 0 0 0 0 0 0 0 0 0 0 0 0 0 0 0 0 0 0 0 0 0 0 0
779 770 720 710 796 856 720 746 640 700 834 811 859 949 1255 1373 1323 1234 1128 1036 1042 1001 1142 1302 1117 1017 987 947 1072 717 298 203 387 746 891 760 551 255 28 4 0 0 0 0 0 0 0 0 0 0 0 0 0 0 0 0 0 0 0 0 0 0 0 0 0 0 0 0 0 0 0 0 0 0 0 0 0 0 0 0 0 0 0 0 0
779 820 568 288 395 726 968 1128 1105 1061 857 660 716 789 865 1036 1288 1281 1245 1177 1183 1249 1341 1309 1116 988 974 958 887 774 393 276 475 618 712 726 556 287 40 6 0 0 0 0 0 0 0 0 0 0 0 0 0 0 0 0 0 0 0 0 0 0 0 0 0 0 0 0 0 0 0 0 0 0 0 0 0 0 0 0 0 0 0 0 0
628 641 185 231 243 443 895 1076 1008 1063 866 860 721 853 911 887 1052 1092 1014 926 823 776 971 968 846 688 798 1038 1061 729 457 320 331 460 440 606 633 348 107 10 1 0 0 0 0 0 0 0 0 0 0 0 0 0 0 0 0 0 0 0 0 0 0 0 0 0 0 0 0 0 0 0 0 0 0 0 0 0 0 0 0 0 0 0 0
552 365 199 136 314 512 672 864 752 747 736 746 844 787 922 1072 1006 800 926 399 745 665 707 641 649 787 926 1069 920 574 421 309 214 426 355 566 638 443 272 43 1 2 0 0 0 0 0 0 0 0 0 0 0 0 0 0 0 0 0 0 0 0 0 0 0 0 0 0 0 0 0 0 0 0 0 0 0 0 0 0 0 0 0 0 0
459 357 93 78 364 600 584 642 566 548 648 766 851 878 921 1025 1039 1028 814 728 754 581 776 685 742 652 945 979 1101 893 479 292 256 330 496 632 577 496 287 154 11 0 0 0 0 0 0 0 0 0 0 0 0 0 0 0 0 0 0 0 0 0 0 0 0 0 0 0 0 0 0 0 0 0 0 0 0 0 0 0 0 0 0 0 0
419 157 107 156 325 328 617 464 404 544 583 498 560 695 804 711 813 799 835 886 832 777 751 635 593 646 867 1014 1052 557 524 275 203 177 403 502 523 510 452 480 48 0 0 0 0 0 0 0 0 0 0 0 0 0 0 0 0 0 0 0 0 0 0 0 0 0 0 0 0 0 0 0 0 0 0 0 0 0 0 0 0 0 0 0 0
207 85 85 62 136 233 445 316 288 285 330 355 342 433 528 622 614 640 533 862 874 978 819 741 702 407 578 869 847 812 489 331 183 111 172 266 465 465 348 180 108 23 0 0 0 0 0 0 0 0 0 0 0 0 0 0 0 0 0 0 0 0 0 0 0 0 0 0 0 0 0 0 0 0 0 0 0 0 0 0 0 0 0 0 0
266 158 66 40 90 123 147 143 126 127 132 93 136 183 246 286 241 212 82 201 377 754 699 668 496 671 707 686 712 646 468 358 188 16 17 94 229 178 92 41 20 36 8 0 0 0 0 0 0 0 0 0 0 0 0 0 0 0 0 0 0 0 0 0 0 0 0 0 0 0 0 0 0 0 0 0 0 0 0 0 0 0 0 0 0
89 53 21 22 21 34 40 35 45 57 41 12 9 21 3 4 1 0 0 0 0 11 160 395 430 630 562 570 687 619 513 406 208 3 1 17 36 36 10 3 0 8 1 0 0 0 0 0 0 0 0 0 0 0 0 0 0 0 0 0 0 0 0 0 0 0 0 0 0 0 0 0 0 0 0 0 0 0 0 0 0 0 0 0 0
35 5 0 1 2 4 0 0 0 0 0 0 0 0 0 21 17 0 0 0 0 1 14 48 223 378 614 531 523 471 529 466 254 40 3 0 10 16 2 1 0 0 2 0 0 0 0 0 0 0 0 0 0 0 0 0 0 0 0 0 0 0 0 0 0 0 0 0 0 0 0 0 0 0 0 0 0 0 0 0 0 0 0 0 0
0 3 0 0 0 0 0 0 0 0 0 0 0 0 0 0 1 0 0 0 0 4 3 6 5 112 366 542 545 490 512 469 127 58 14 2 15 15 6 2 1 0 0 0 0 0 0 0 0 0 0 0 0 0 0 0 0 0 0 0 0 0 0 0 0 0 0 0 0 0 0 0 0 0 0 0 0 0 0 0 0 0 0 0 0
0 0 0 0 0 0 0 0 0 0 0 0 0 0 0 0 0 0 0 0 0 0 0 0 0 0 100 441 467 520 532 276 100 140 30 26 21 15 9 4 6 0 0 0 0 0 0 0 0 0 0 0 0 0 0 0 0 0 0 0 0 0 0 0 0 0 0 0 0 0 0 0 0 0 0 0 0 0 0 0 0 0 0 0 0
0 0 0 0 0 0 0 0 0 0 0 0 0 0 0 0 0 0 0 0 0 0 0 0 0 0 0 142 262 413 635 602 294 161 113 189 21 30 29 4 0 1 0 0 0 0 0 0 0 0 0 0 0 0 0 0 0 0 0 0 0 0 0 0 0 0 0 0 0 0 0 0 0 0 0 0 0 0 0 0 0 0 0 0 0
0 0 0 0 0 0 0 0 0 0 0 0 0 0 0 0 0 0 0 0 0 0 0 0 0 0 0 0 74 273 636 858 489 372 315 473 356 272 91 35 2 2 0 0 0 0 0 0 0 0 0 0 0 0 0 0 0 0 0 0 0 0 0 0 0 0 0 0 0 0 0 0 0 0 0 0 0 0 0 0 0 0 0 0 0
0 0 0 0 0 0 0 0 0 0 0 0 0 0 0 0 0 0 0 0 0 11 1 0 0 0 0 0 2 66 492 925 865 559 368 447 559 641 443 347 6 0 0 0 0 0 0 0 0 0 0 0 0 0 0 0 0 0 0 0 0 0 0 0 0 0 0 0 0 0 0 0 0 0 0 0 0 0 0 0 0 0 0 0 0
0 0 0 0 0 0 0 0 0 0 0 0 0 0 0 0 0 0 0 0 0 0 64 11 0 0 0 0 0 0 30 148 483 436 348 378 251 467 356 327 108 6 4 0 0 0 0 38 21 0 0 0 0 0 0 0 0 0 0 0 0 0 0 0 0 0 0 0 0 0 0 0 0 0 0 0 0 0 0 0 0 0 0 0 0
0 0 0 0 0 0 0 0 0 0 0 0 0 0 0 0 0 0 0 0 0 0 0 19 5 0 0 0 0 0 0 4 0 2 12 27 38 73 104 44 96 84 75 16 1 0 0 0 0 0 0 0 0 0 0 0 0 0 0 0 0 0 0 0 0 0 0 0 0 0 0 0 0 0 0 0 0 0 0 0 0 0 0 0 0
0 0 0 0 0 0 0 0 0 0 0 0 0 0 0 0 0 0 0 0 0 4 1 12 38 10 4 0 0 0 0 0 0 0 0 0 0 17 82 1 1 4 19 11 2 2 0 0 0 0 0 0 0 0 0 0 0 0 0 0 0 0 0 0 0 0 0 0 0 0 0 0 0 0 0 0 0 0 0 0 0 0 0 0 0
0 0 0 14 3 0 0 0 0 0 1 0 0 0 0 0 0 0 0 5 0 1 16 30 41 48 43 3 65 35 0 0 0 0 0 0 0 0 0 0 0 28 49 23 11 1 0 0 0 0 0 0 0 0 0 0 0 0 0 0 0 0 0 0 0 0 0 0 0 0 0 0 0 0 0 0 0 0 0 0 0 0 0 0 0
0 0 0 0 0 3 1 0 0 1 2 0 0 0 0 0 0 0 0 0 0 5 6 12 18 31 83 118 153 145 202 306 289 48 0 0 0 0 0 0 0 0 0 86 57 30 3 0 0 0 0 0 6 18 0 0 0 0 0 0 0 0 0 0 0 0 0 0 0 0 0 0 0 0 0 0 0 0 0 0 0 0 0 0 0
0 0 0 0 0 0 0 0 0 0 0 0 0 0 0 0 0 0 0 0 0 0 0 2 19 69 121 85 133 170 70 6 0 116 259 28 0 0 0 0 0 0 0 0 0 8 63 2 0 4 1 0 8 6 0 0 0 0 0 0 0 0 0 0 0 0 0 0 0 0 0 0 0 0 0 0 0 0 0 0 0 0 0 0 0
0 0 0 0 0 0 0 0 0 0 0 0 0 0 0 0 0 0 0 0 0 0 0 0 0 2 14 22 42 115 206 123 158 296 156 252 172 11 0 0 3 0 0 0 0 0 0 0 13 13 111 30 0 7 39 0 0 0 0 0 0 0 0 0 0 0 0 0 0 0 0 0 0 0 0 0 0 0 0 0 0 0 0 0 0
0 0 0 0 0 0 0 0 0 0 0 0 0 0 0 0 0 0 0 4 118 159 63 14 4 4 5 8 10 12 36 72 99 177 152 119 90 102 103 186 195 260 37 4 0 0 0 0 2 42 91 279 18 6 302 0 0 0 0 0 0 0 0 0 0 0 0 0 0 0 0 0 1 0 0 0 0 0 0 0 0 0 0 0 0
0 0 0 0 0 0 0 0 0 0 0 0 0 0 0 0 0 0 0 0 21 119 243 156 86 93 47 56 125 158 179 160 47 0 0 15 18 11 24 60 115 127 56 69 0 0 2 14 18 65 91 62 90 4 7 0 0 0 0 0 0 0 0 0 1 3 3 0 1 0 0 1 2 2 1 0 0 0 0 0 0 0 0 0 0
0 0 0 0 0 0 0 0 0 0 0 0 0 0 0 0 0 0 0 0 0 0 0 0 0 8 58 57 198 264 353 453 72 0 0 0 0 7 37 118 173 86 7 10 0 0 0 0 0 0 0 0 0 0 0 0 0 0 0 0 0 2 0 0 0 0 0 0 0 0 0 0 0 1 2 0 0 0 0 0 0 0 0 0 0
1 0 0 0 0 0 0 0 0 0 0 0 0 0 0 0 0 0 0 0 0 0 0 0 0 1 1 0 0 63 271 460 307 0 0 0 2 132 224 235 266 181 102 57 0 0 0 0 0 0 0 0 0 0 0 0 0 0 0 0 0 0 0 0 0 0 0 0 0 0 1 0 0 0 0 0 0 0 0 0 0 0 0 0 0
1 0 0 0 0 0 0 0 0 0 0 0 0 0 0 0 0 0 0 0 0 0 0 0 0 0 0 0 0 0 107 186 192 178 0 0 6 216 279 312 314 324 308 339 1 0 0 0 0 0 0 0 0 0 0 0 0 0 0 0 0 0 0 0 0 0 1 0 1 2 1 0 0 0 0 0 0 0 0 0 0 0 0 0 0
Wind_Speed
17 16 14 14 13 13 14 14 13 13 12 11 11 11 12 12 12 11 10 11 12 13 15 17 18 18 18 19 19 21 22 22 23 24 24 23 23 26 26 26 28 27 28 30 30 29 28 27 26 26 26 26 nan nan nan nan nan nan nan nan nan nan nan nan nan nan nan nan nan nan nan nan nan nan nan nan nan nan nan nan nan nan nan nan nan
18 16 14 13 13 13 13 14 14 14 14 13 12 11 12 12 11 10 11 11 11 12 13 15 16 16 16 16 17 18 20 20 21 23 24 23 24 25 26 27 29 28 28 29 30 30 29 28 27 27 nan 26 26 25 25 25 nan nan nan nan nan nan nan nan nan nan nan nan nan nan nan nan nan nan nan nan nan nan nan nan nan nan nan nan nan
16 14 13 13 13 12 13 13 14 14 13 13 12 11 11 11 10 9 10 11 12 12 11 13 14 15 15 16 16 16 17 17 19 22 23 24 23 24 26 28 28 27 26 28 29 31 31 29 28 27 26 26 26 26 26 26 nan nan nan nan nan nan nan nan nan nan nan nan nan nan nan nan nan nan nan nan nan nan nan nan nan nan nan nan nan
14 13 13 11 10 10 10 10 13 13 12 12 12 10 10 11 11 11 11 11 12 11 11 12 13 14 14 15 15 15 16 16 18 21 22 24 24 24 24 25 28 26 25 25 29 30 31 30 29 28 28 27 27 26 26 26 26 nan nan nan nan nan nan nan nan nan nan nan nan nan nan nan nan nan nan nan nan nan nan nan nan nan nan nan nan
13 13 12 9 9 8 9 10 11 12 11 12 12 11 10 10 12 12 12 12 12 12 12 12 13 14 13 14 15 16 16 16 18 20 21 22 23 23 23 24 26 25 24 27 28 29 29 29 29 29 28 28 28 27 26 26 27 27 nan nan nan nan nan nan nan nan nan nan nan nan nan nan nan nan nan nan nan nan nan nan nan nan nan nan nan
12 12 10 9 9 8 8 9 10 10 10 10 11 9 9 10 11 12 12 12 12 12 12 13 13 12 13 14 15 16 16 17 18 19 20 21 21 21 22 22 23 25 26 26 28 28 26 27 28 28 27 28 27 25 27 27 27 26 26 nan nan nan nan nan nan nan nan nan nan nan nan nan nan nan nan nan nan nan nan nan nan nan nan nan nan
11 10 10 9 8 8 8 8 8 8 9 9 10 9 9 10 11 12 12 12 12 12 12 12 12 13 14 14 16 16 17 18 18 17 18 18 18 20 20 20 21 23 24 24 26 26 27 28 27 25 24 24 25 26 24 26 26 26 25 24 23 24 nan nan nan nan nan nan nan nan nan nan nan nan nan nan nan nan nan nan nan nan nan nan nan
10 9 10 9 7 7 8 8 8 8 8 9 9 9 10 11 10 10 12 12 12 12 11 12 12 13 14 15 16 17 17 16 17 16 15 17 19 19 18 18 18 19 20 21 22 26 29 28 27 26 26 25 25 25 26 26 24 23 23 23 23 23 24 24 24 24 nan nan nan nan nan nan nan nan nan nan nan nan nan nan nan nan nan nan nan
10 10 11 9 7 7 8 9 9 8 8 9 10 9 9 10 10 10 11 12 12 13 11 11 12 12 13 15 15 15 15 14 15 16 15 16 17 15 16 15 16 17 17 18 18 20 26 26 27 27 26 26 25 23 21 23 21 22 22 21 20 21 21 22 21 21 23 22 22 23 nan nan nan nan nan nan nan nan nan nan nan nan nan nan nan
11 11 11 8 6 7 10 10 9 8 8 9 10 10 10 9 11 10 11 13 13 12 12 12 11 11 13 15 14 13 13 13 14 15 14 16 16 14 13 13 13 15 16 16 16 16 18 24 27 27 26 22 22 22 22 23 22 22 20 19 19 18 18 18 18 18 18 18 19 20 20 20 nan nan nan nan nan nan nan nan nan nan nan nan nan
12 12 10 8 6 7 9 9 9 8 8 10 12 12 11 10 11 12 12 12 12 12 12 12 11 12 14 15 13 12 11 12 12 13 13 15 14 12 11 12 14 15 15 15 15 15 15 15 15 17 20 23 22 22 23 22 21 20 19 19 21 20 16 14 15 14 15 16 19 18 17 18 17 15 nan 14 14 16 17 nan nan nan nan nan nan
12 12 10 8 7 7 8 9 8 8 8 9 11 11 11 11 11 13 15 15 14 14 14 13 13 14 15 13 12 10 10 10 11 13 14 13 11 9 10 12 13 13 14 15 15 16 15 15 13 14 16 nan nan nan nan 23 21 20 19 20 22 21 20 20 20 20 18 19 20 22 18 16 14 12 11 11 11 11 10 nan nan nan nan nan nan
13 12 10 9 8 8 8 9 8 8 8 9 10 11 12 12 12 11 14 16 15 15 15 14 15 14 14 13 11 10 9 10 11 11 11 8 8 9 9 11 11 12 13 15 17 17 16 13 12 nan 14 nan nan nan nan 21 21 19 20 21 22 22 23 24 25 24 22 20 20 20 17 15 13 11 9 11 11 10 11 10 11 13 nan nan nan
14 12 11 10 9 9 8 9 9 8 9 10 11 13 13 12 12 11 11 13 14 14 16 15 13 13 13 11 12 10 9 9 10 9 10 9 9 10 10 10 11 12 13 14 16 15 14 14 15 14 12 nan nan 14 16 18 21 20 23 24 24 25 25 26 25 25 24 24 23 20 20 20 17 17 16 14 13 14 13 14 13 12 12 13 nan
14 13 12 11 10 10 10 10 9 10 11 11 12 13 12 12 11 11 12 11 13 12 13 5 12 13 13 11 10 10 7 7 10 9 8 8 8 10 10 10 11 11 10 12 13 13 nan 14 nan 12 nan nan nan 14 16 19 19 21 23 24 25 26 26 27 27 28 28 27 27 26 25 25 25 25 26 25 23 18 17 nan nan 16 14 nan nan
15 14 13 13 11 11 12 10 11 10 10 12 12 12 11 11 10 11 12 13 11 11 9 7 11 14 12 7 9 9 9 7 10 10 8 9 9 9 10 11 11 12 11 12 13 nan nan 13 nan nan nan nan nan 13 15 17 18 21 22 23 24 25 27 27 29 30 30 29 nan nan nan nan nan nan nan nan nan 27 27 24 21 nan nan nan 12
17 16 16 15 13 12 13 12 12 10 10 11 12 11 11 11 10 9 9 11 11 10 8 7 10 6 9 11 9 7 7 9 11 nan 8 10 11 12 12 12 13 14 14 15 14 13 13 nan nan nan nan nan nan 14 16 17 19 20 nan nan 22 27 29 30 30 nan nan nan nan nan nan nan nan nan nan nan nan nan nan nan 28 28 28 26 22
19 18 17 16 15 15 14 13 12 10 10 11 11 12 10 9 9 8 8 8 9 9 9 7 7 6 6 6 6 5 11 12 10 12 11 12 12 12 12 13 13 15 16 15 15 nan nan nan nan nan nan nan nan nan nan 17 18 19 nan nan nan nan nan 28 nan nan nan nan nan nan nan nan nan nan nan nan nan nan nan nan nan nan 31 31 31
21 19 18 17 17 16 15 13 13 11 12 11 11 10 10 9 9 7 8 8 8 8 8 9 7 6 6 7 7 6 12 14 10 15 14 nan 12 13 14 15 nan nan nan nan nan nan nan nan nan nan nan nan nan nan nan nan nan nan nan nan nan nan nan nan nan nan nan nan nan nan nan nan nan nan nan nan nan nan nan nan nan nan nan nan nan
21 20 20 20 19 18 15 13 12 12 12 11 10 10 10 10 9 8 9 8 7 6 8 8 7 8 7 7 8 9 11 6 13 12 15 16 14 16 16 18 18 nan nan nan nan nan nan nan nan nan nan nan nan nan nan nan nan nan nan nan nan nan nan nan nan nan nan nan nan nan nan nan nan nan nan nan nan nan nan nan nan nan nan nan nan
22 22 21 21 20 18 16 14 12 12 11 10 9 9 9 10 10 9 9 10 9 9 10 9 8 10 10 10 10 10 9 9 11 11 15 17 16 nan nan nan nan nan nan nan nan nan nan nan nan nan nan nan nan nan nan nan nan nan nan nan nan nan nan nan nan nan nan nan nan nan nan nan nan nan nan nan nan nan nan nan nan nan nan nan nan
23 22 22 22 21 18 16 14 12 12 10 10 10 10 10 11 11 10 10 9 10 10 10 11 10 13 11 13 13 13 12 12 12 13 14 14 17 18 nan nan nan nan nan nan nan nan nan nan nan nan nan nan nan nan nan nan nan nan nan nan nan nan nan nan nan nan nan nan nan nan nan nan nan nan nan nan nan nan nan nan nan nan nan nan nan
22 21 20 21 21 19 16 15 13 12 11 10 10 11 12 12 13 12 11 10 10 11 11 12 12 13 12 12 12 13 14 12 14 15 15 15 19 nan nan nan nan nan nan nan nan nan nan nan nan nan nan nan nan nan nan nan nan nan nan nan nan nan nan nan nan nan nan nan nan nan nan nan nan nan nan nan nan nan nan nan nan nan nan nan nan
22 21 21 21 20 19 17 15 14 13 12 12 12 12 13 13 14 14 14 12 12 12 12 13 13 12 11 11 11 13 18 10 11 13 15 17 19 21 nan nan nan nan nan nan nan nan nan nan nan nan nan nan nan nan nan nan nan nan nan nan nan nan nan nan nan nan nan nan nan nan nan nan nan nan nan nan nan nan nan nan nan nan nan nan nan
21 21 22 21 21 20 18 16 15 14 14 14 13 11 11 12 13 14 15 14 14 13 13 12 12 12 12 12 12 14 16 12 9 14 16 17 19 20 nan nan nan nan nan nan nan nan nan nan nan nan nan nan nan nan nan nan nan nan nan nan nan nan nan nan nan nan nan nan nan nan nan nan nan nan nan nan nan nan nan nan nan nan nan nan nan
21 21 21 21 22 22 19 18 18 17 16 15 13 10 9 9 11 11 13 13 12 11 10 11 11 10 11 12 11 12 13 13 13 15 17 17 17 19 nan nan nan nan nan nan nan nan nan nan nan nan nan nan nan nan nan nan nan nan nan nan nan nan nan nan nan nan nan nan nan nan nan nan nan nan nan nan nan nan nan nan nan nan nan nan nan
21 23 21 22 23 22 20 20 20 19 18 16 14 11 10 9 10 11 11 11 10 10 9 10 10 9 9 9 11 12 13 12 14 14 15 14 16 18 20 nan nan nan nan nan nan nan nan nan nan nan nan nan nan nan nan nan nan nan nan nan nan nan nan nan nan nan nan nan nan nan nan nan nan nan nan nan nan nan nan nan nan nan nan nan nan
22 23 22 22 22 22 21 21 20 20 18 16 14 12 11 10 11 12 11 11 11 10 10 9 9 9 9 10 10 12 11 12 13 14 13 13 14 15 16 nan nan nan nan nan nan nan nan nan nan nan nan nan nan nan nan nan nan nan nan nan nan nan nan nan nan nan nan nan nan nan nan nan nan nan nan nan nan nan nan nan nan nan nan nan nan
22 22 nan nan 22 22 21 21 21 20 18 17 16 13 12 12 12 11 11 13 13 13 12 11 11 11 10 11 10 12 13 13 13 14 13 13 13 14 15 15 nan nan nan nan nan nan nan nan nan nan nan nan nan nan nan nan nan nan nan nan nan nan nan nan nan nan nan nan nan nan nan nan nan nan nan nan nan nan nan nan nan nan nan nan nan
20 22 23 24 23 21 22 22 22 20 19 18 16 14 12 13 12 11 11 12 13 13 12 12 12 11 11 12 12 15 15 15 14 14 14 14 13 14 13 13 nan nan nan nan nan nan nan nan nan nan nan nan nan nan nan nan nan nan nan nan nan nan nan nan nan nan nan nan nan nan nan nan nan nan nan nan nan nan nan nan nan nan nan nan nan
18 nan nan nan 22 21 21 22 22 21 20 19 17 15 13 14 13 12 11 10 11 12 12 11 11 11 12 13 14 15 16 16 16 16 15 15 14 14 14 14 14 nan nan nan nan nan nan nan nan nan nan nan nan nan nan nan nan nan nan nan nan nan nan nan nan nan nan nan nan nan nan nan nan nan nan nan nan nan nan nan nan nan nan nan nan
18 20 nan nan nan 22 21 21 22 22 21 nan 18 17 14 15 15 13 nan 10 11 11 12 11 12 12 14 14 15 16 17 17 17 nan nan nan 15 16 nan nan nan nan nan nan nan nan nan nan nan nan nan nan nan nan nan nan nan nan nan nan nan nan nan nan nan nan nan nan nan nan nan nan nan nan nan nan nan nan nan nan nan nan nan nan nan
nan nan nan nan nan nan nan nan nan nan nan nan nan nan nan nan nan nan nan nan nan nan 13 13 13 13 14 14 17 18 18 18 18 nan nan nan nan nan nan nan nan nan nan nan nan nan nan nan nan nan nan nan nan nan nan nan nan nan nan nan nan nan nan nan nan nan nan nan nan nan nan nan nan nan nan nan nan nan nan nan nan nan nan nan nan
nan nan nan nan nan nan nan nan nan nan nan nan nan nan nan nan nan nan nan nan nan nan nan nan 15 15 15 16 18 19 18 18 19 nan nan nan nan nan nan nan nan nan nan nan nan nan nan nan nan nan nan nan nan nan nan nan nan nan nan nan nan nan nan nan nan nan nan nan nan nan nan nan nan nan nan nan nan nan nan nan nan nan nan nan nan
nan nan nan nan nan nan nan nan nan nan nan nan nan nan nan nan nan nan nan nan nan nan nan nan nan 18 17 17 19 20 19 19 18 nan nan nan nan nan nan nan nan nan nan nan nan nan nan nan nan nan nan nan nan nan nan nan nan nan nan nan nan nan nan nan nan nan nan nan nan nan nan nan nan nan nan nan nan nan nan nan nan nan nan nan nan
nan nan nan nan nan nan nan nan nan nan nan nan nan nan nan nan nan nan nan nan nan nan nan nan nan nan 19 19 21 22 21 20 19 19 nan nan nan nan nan nan nan nan nan nan nan nan nan nan nan nan nan nan nan nan nan nan nan nan nan nan nan nan nan nan nan nan nan nan nan nan nan nan nan nan nan nan nan nan nan nan nan nan nan nan nan
nan nan nan nan nan nan nan nan nan nan nan nan nan nan nan nan nan nan nan nan nan nan nan nan nan nan nan 19 22 22 21 21 20 19 19 19 nan nan nan nan nan nan nan nan nan nan nan nan nan nan nan nan nan nan nan nan nan nan nan nan nan nan nan nan nan nan nan nan nan nan nan nan nan nan nan nan nan nan nan nan nan nan nan nan nan
nan nan nan nan nan nan nan nan nan nan nan nan nan nan nan nan nan nan nan nan nan nan nan nan nan nan nan nan nan 21 21 21 21 20 19 19 19 19 nan nan nan nan nan nan nan nan nan nan nan nan nan nan nan nan nan nan nan nan nan nan nan nan nan nan nan nan nan nan nan nan nan nan nan nan nan nan nan nan nan nan nan nan nan nan nan
nan nan nan nan nan nan nan nan nan nan nan nan nan nan nan nan nan nan nan nan nan nan nan nan nan nan nan nan nan nan 20 20 21 21 20 20 20 19 19 20 nan nan nan nan nan nan nan nan nan nan nan nan nan nan nan nan nan nan nan nan nan nan nan nan nan nan nan nan nan nan nan nan nan nan nan nan nan nan nan nan nan nan nan nan nan
nan nan nan nan nan nan nan nan nan nan nan nan nan nan nan nan nan nan nan nan nan nan nan nan nan nan nan nan nan nan nan 22 22 22 22 21 21 20 20 20 20 nan nan nan nan nan nan nan nan nan nan nan nan nan nan nan nan nan nan nan nan nan nan nan nan nan nan nan nan nan nan nan nan nan nan nan nan nan nan nan nan nan nan nan nan
nan nan nan nan nan nan nan nan nan nan nan nan nan nan nan nan nan nan nan nan nan nan nan nan nan nan nan nan nan nan nan nan nan nan nan nan nan nan 22 nan nan nan nan nan nan nan nan nan nan nan nan nan nan nan nan nan nan nan nan nan nan nan nan nan nan nan nan nan nan nan nan nan nan nan nan nan nan nan nan nan nan nan nan nan nan
nan nan nan nan nan nan nan nan nan nan nan nan nan nan nan nan nan nan nan nan nan nan nan nan nan nan nan nan nan nan nan nan nan nan nan nan nan nan nan nan nan nan nan nan nan nan nan nan nan nan nan nan nan nan nan nan nan nan nan nan nan nan nan nan nan nan nan nan nan nan nan nan nan nan nan nan nan nan nan nan nan nan nan nan nan
nan nan nan nan nan nan nan nan nan nan nan nan nan nan nan nan nan nan nan nan nan nan nan nan nan nan nan nan nan nan nan nan nan nan nan nan nan nan nan nan nan nan nan nan nan nan nan nan nan nan nan nan nan nan nan nan nan nan nan nan nan nan nan nan nan nan nan nan nan nan nan nan nan nan nan nan nan nan nan nan nan nan nan nan nan
nan nan nan nan nan nan nan nan nan nan nan nan nan nan nan nan nan nan nan nan nan nan nan nan nan nan nan 23 24 25 26 26 28 nan nan nan nan nan nan nan nan nan nan nan nan nan nan nan nan nan nan nan nan nan nan nan nan nan nan nan nan nan nan nan nan nan nan nan nan nan nan nan nan nan nan nan nan nan nan nan nan nan nan nan nan
nan nan nan nan nan nan nan nan nan nan nan nan nan nan nan nan nan nan nan nan nan nan nan nan nan nan 25 nan 26 28 nan nan nan 29 31 nan nan nan nan nan nan nan nan nan nan nan nan nan nan nan nan nan nan nan nan nan nan nan nan nan nan nan nan nan nan nan nan nan nan nan nan nan nan nan nan nan nan nan nan nan nan nan nan nan nan
nan nan nan nan nan nan nan nan nan nan nan nan nan nan nan nan nan nan nan nan nan nan nan nan nan nan nan nan nan 30 32 32 31 31 32 32 34 nan nan nan nan nan nan nan nan nan nan nan nan nan 27 nan nan nan nan nan nan nan nan nan nan nan nan nan nan nan nan nan nan nan nan nan nan nan nan nan nan nan nan nan nan nan nan nan nan
nan nan nan nan nan nan nan nan nan nan nan nan nan nan nan nan nan nan nan nan 32 33 nan nan nan nan nan nan nan nan nan nan nan 34 33 34 nan 34 33 32 32 33 nan nan nan nan nan nan nan nan nan 32 nan nan 33 nan nan nan nan nan nan nan nan nan nan nan nan nan nan nan nan nan nan nan nan nan nan nan nan nan nan nan nan nan nan
nan nan nan nan nan nan nan nan nan nan nan nan nan nan nan nan nan nan nan nan nan 34 35 35 nan nan nan nan 33 33 34 34 nan nan nan nan nan nan nan nan 35 38 nan nan nan nan nan nan nan nan nan nan nan nan nan nan nan nan nan nan nan nan nan nan nan nan nan nan nan nan nan nan nan nan nan nan nan nan nan nan nan nan nan nan nan
nan nan nan nan nan nan nan nan nan nan nan nan nan nan nan nan nan nan nan nan nan nan nan nan nan nan nan nan 36 36 36 35 nan nan nan nan nan nan nan 37 39 nan nan nan nan nan nan nan nan nan nan nan nan nan nan nan nan nan nan nan nan nan nan nan nan nan nan nan nan nan nan nan nan nan nan nan nan nan nan nan nan nan nan nan nan
nan nan nan nan nan nan nan nan nan nan nan nan nan nan nan nan nan nan nan nan nan nan nan nan nan nan nan nan nan nan 38 40 49 nan nan nan nan 40 40 40 41 41 42 nan nan nan nan nan nan nan nan nan nan nan nan nan nan nan nan nan nan nan nan nan nan nan nan nan nan nan nan nan nan nan nan nan nan nan nan nan nan nan nan nan nan
nan nan nan nan nan nan nan nan nan nan nan nan nan nan nan nan nan nan nan nan nan nan nan nan nan nan nan nan nan nan 43 44 47 49 nan nan nan 45 45 45 44 43 44 49 nan nan nan nan nan nan nan nan nan nan nan nan nan nan nan nan nan nan nan nan nan nan nan nan nan nan nan nan nan nan nan nan nan nan nan nan nan nan nan nan nan
Wind_Direction
290 290 288 284 283 287 288 282 278 274 271 267 269 272 272 269 270 277 280 281 278 271 266 269 274 278 280 279 273 267 263 264 267 269 267 265 266 266 263 261 258 257 259 262 262 264 265 265 266 267 268 269 nan nan nan nan nan nan nan nan nan nan nan nan nan nan nan nan nan nan nan nan nan nan nan nan nan nan nan nan nan nan nan nan nan
291 291 290 286 285 287 280 274 269 268 270 271 273 270 269 272 276 276 278 278 276 266 267 272 276 277 279 280 274 267 264 267 269 267 266 264 262 264 262 259 260 257 253 259 262 263 263 262 263 265 nan 271 274 277 277 278 nan nan nan nan nan nan nan nan nan nan nan nan nan nan nan nan nan nan nan nan nan nan nan nan nan nan nan nan nan
292 292 290 290 289 286 277 268 268 270 271 272 276 272 269 269 269 274 273 272 271 271 270 272 276 279 276 279 272 267 266 263 264 265 265 263 260 261 263 262 263 262 259 259 261 263 262 262 265 266 267 268 270 273 276 278 nan nan nan nan nan nan nan nan nan nan nan nan nan nan nan nan nan nan nan nan nan nan nan nan nan nan nan nan nan
290 290 287 288 285 281 264 262 265 268 269 272 274 268 267 269 272 270 268 269 272 273 269 272 275 278 282 279 280 274 270 269 268 266 263 262 260 260 261 264 267 264 261 255 261 259 259 262 263 264 264 265 267 270 273 275 278 nan nan nan nan nan nan nan nan nan nan nan nan nan nan nan nan nan nan nan nan nan nan nan nan nan nan nan nan
284 280 276 275 276 274 258 258 261 264 266 269 271 268 270 276 275 275 274 274 275 273 272 272 276 280 285 286 283 279 275 273 269 266 263 259 258 259 260 263 264 266 259 254 253 261 263 261 262 262 264 266 269 269 272 272 274 275 nan nan nan nan nan nan nan nan nan nan nan nan nan nan nan nan nan nan nan nan nan nan nan nan nan nan nan
271 265 262 268 272 269 264 259 264 268 268 269 269 266 271 274 275 276 275 275 273 273 274 276 279 286 288 289 287 282 278 269 266 264 259 256 253 257 260 261 261 262 263 259 254 262 265 261 264 267 267 266 266 270 270 271 272 274 274 nan nan nan nan nan nan nan nan nan nan nan nan nan nan nan nan nan nan nan nan nan nan nan nan nan nan
260 263 266 269 270 267 267 263 270 273 271 266 267 263 266 267 270 276 274 273 274 273 278 283 286 291 296 294 289 282 275 273 275 275 265 254 256 257 258 259 260 262 263 263 262 262 256 253 257 263 267 268 262 254 260 271 273 275 276 276 277 278 nan nan nan nan nan nan nan nan nan nan nan nan nan nan nan nan nan nan nan nan nan nan nan
265 273 274 270 269 264 269 276 278 269 267 267 268 263 263 262 260 266 273 273 278 280 285 289 292 298 300 295 289 284 279 277 280 279 265 252 245 251 256 259 262 260 260 260 258 260 258 260 261 262 264 265 262 263 263 264 265 268 274 277 281 282 282 284 283 283 nan nan nan nan nan nan nan nan nan nan nan nan nan nan nan nan nan nan nan
266 275 271 272 273 278 276 277 274 272 268 271 271 267 273 273 272 266 273 280 284 288 290 293 295 297 297 297 295 291 285 279 277 268 260 254 258 257 258 257 259 266 267 266 265 266 264 264 263 261 261 259 259 260 262 262 261 264 264 271 275 283 286 287 287 287 286 287 286 284 nan nan nan nan nan nan nan nan nan nan nan nan nan nan nan
262 268 263 270 278 282 280 279 275 271 272 276 275 277 276 276 283 276 283 288 290 292 293 295 295 292 291 298 300 293 280 269 265 266 262 261 255 254 249 253 258 266 268 267 267 268 270 269 270 265 260 259 262 262 257 254 257 265 261 268 275 280 286 287 289 287 287 290 291 285 283 288 nan nan nan nan nan nan nan nan nan nan nan nan nan
260 267 267 272 275 277 276 282 279 279 279 278 278 280 282 286 290 286 283 286 292 293 294 296 293 288 288 295 303 295 280 270 263 266 267 263 261 256 255 258 260 263 267 267 267 264 264 264 265 268 268 261 260 257 255 249 252 261 263 265 271 279 284 287 287 295 286 265 273 269 276 294 294 287 nan 286 289 289 291 nan nan nan nan nan nan
252 255 258 258 257 264 271 283 289 287 286 283 283 289 292 290 289 290 289 286 287 292 297 298 288 284 286 289 292 287 271 274 283 275 265 258 261 264 265 265 267 269 267 264 264 264 262 261 262 269 273 nan nan nan nan 250 247 253 263 266 268 276 279 275 277 276 271 264 262 263 261 272 279 275 263 259 260 267 291 nan nan nan nan nan nan
247 251 251 254 250 254 266 276 284 289 289 285 285 289 285 285 287 289 292 289 290 295 299 300 296 285 280 283 283 281 278 276 280 285 280 262 263 273 269 277 278 278 275 274 271 271 267 270 275 nan 270 nan nan nan nan 261 249 250 259 269 273 272 270 270 274 277 276 272 267 266 264 266 266 259 257 254 256 258 268 292 320 326 nan nan nan
249 251 249 250 251 252 259 269 276 282 284 283 283 282 284 285 290 285 285 289 291 301 304 303 299 301 304 291 279 279 274 274 276 278 286 292 284 276 273 284 286 282 282 284 282 283 282 282 276 279 278 nan nan 273 271 272 265 255 263 272 275 275 277 279 278 275 275 272 270 266 264 262 263 263 260 263 269 267 270 285 291 307 327 324 nan
249 251 250 252 254 257 260 263 272 274 281 283 282 283 287 291 297 288 283 281 287 294 300 282 300 301 297 298 295 289 282 261 258 268 281 295 290 284 282 282 289 289 287 291 292 286 nan 276 nan 276 nan nan nan 276 274 270 264 261 268 275 277 278 281 282 281 280 276 270 266 262 261 260 261 259 256 256 259 264 268 nan nan 283 289 nan nan
247 250 250 251 254 255 258 260 266 268 272 275 278 284 290 288 290 289 288 285 291 296 291 295 304 309 308 292 296 300 296 279 282 275 281 285 296 295 291 290 294 295 295 293 289 nan nan 273 nan nan nan nan nan 274 275 276 270 263 263 274 279 282 286 286 282 280 278 275 nan nan nan nan nan nan nan nan nan 260 265 268 271 nan nan nan 301
246 249 250 252 250 249 254 257 262 264 263 266 271 277 287 287 293 291 296 289 295 297 292 298 319 277 293 301 300 315 293 293 287 nan 271 280 279 290 292 300 303 295 289 287 282 277 273 nan nan nan nan nan nan 279 282 283 282 277 nan nan 274 284 286 284 285 nan nan nan nan nan nan nan nan nan nan nan nan nan nan nan 269 270 268 267 268
248 250 251 251 252 252 255 259 261 263 257 257 264 268 279 286 291 291 294 291 292 298 299 289 311 270 251 249 259 275 311 309 297 281 265 260 268 278 288 293 293 290 285 290 288 nan nan nan nan nan nan nan nan nan nan 271 273 274 nan nan nan nan nan 285 nan nan nan nan nan nan nan nan nan nan nan nan nan nan nan nan nan nan 265 263 261
253 253 254 255 254 254 257 259 258 255 253 254 257 262 267 278 281 283 280 280 291 301 312 304 301 283 267 258 257 270 310 313 300 291 288 nan 261 261 264 268 nan nan nan nan nan nan nan nan nan nan nan nan nan nan nan nan nan nan nan nan nan nan nan nan nan nan nan nan nan nan nan nan nan nan nan nan nan nan nan nan nan nan nan nan nan
255 256 257 256 253 252 253 256 258 255 254 256 258 259 261 267 272 274 271 273 286 283 298 301 310 290 281 276 270 288 304 282 306 306 299 294 281 274 265 265 263 nan nan nan nan nan nan nan nan nan nan nan nan nan nan nan nan nan nan nan nan nan nan nan nan nan nan nan nan nan nan nan nan nan nan nan nan nan nan nan nan nan nan nan nan
257 258 257 255 251 248 248 248 250 253 252 250 252 258 264 267 274 276 277 274 265 262 271 283 285 282 289 283 281 292 294 288 304 295 297 294 289 nan nan nan nan nan nan nan nan nan nan nan nan nan nan nan nan nan nan nan nan nan nan nan nan nan nan nan nan nan nan nan nan nan nan nan nan nan nan nan nan nan nan nan nan nan nan nan nan
258 253 255 255 252 248 244 244 245 248 247 248 252 257 264 268 274 277 276 273 268 267 268 266 270 271 276 277 283 288 292 292 302 300 296 299 299 296 nan nan nan nan nan nan nan nan nan nan nan nan nan nan nan nan nan nan nan nan nan nan nan nan nan nan nan nan nan nan nan nan nan nan nan nan nan nan nan nan nan nan nan nan nan nan nan
252 251 254 255 253 246 239 239 241 245 248 253 255 257 264 269 271 275 274 272 266 269 267 261 264 271 276 278 282 291 289 296 301 303 298 293 293 nan nan nan nan nan nan nan nan nan nan nan nan nan nan nan nan nan nan nan nan nan nan nan nan nan nan nan nan nan nan nan nan nan nan nan nan nan nan nan nan nan nan nan nan nan nan nan nan
246 247 252 256 256 248 240 239 241 246 251 253 257 264 268 272 274 273 270 269 267 265 265 269 272 270 277 273 271 273 270 258 287 295 295 290 294 298 nan nan nan nan nan nan nan nan nan nan nan nan nan nan nan nan nan nan nan nan nan nan nan nan nan nan nan nan nan nan nan nan nan nan nan nan nan nan nan nan nan nan nan nan nan nan nan
252 253 252 256 253 248 244 242 243 247 251 254 259 265 269 274 275 275 272 272 270 273 270 273 276 271 270 269 260 266 280 283 280 285 277 281 289 292 nan nan nan nan nan nan nan nan nan nan nan nan nan nan nan nan nan nan nan nan nan nan nan nan nan nan nan nan nan nan nan nan nan nan nan nan nan nan nan nan nan nan nan nan nan nan nan
260 258 251 249 246 242 239 241 243 251 254 255 257 262 274 280 280 275 269 264 263 269 266 268 268 266 262 267 270 263 268 271 277 279 280 284 285 289 nan nan nan nan nan nan nan nan nan nan nan nan nan nan nan nan nan nan nan nan nan nan nan nan nan nan nan nan nan nan nan nan nan nan nan nan nan nan nan nan nan nan nan nan nan nan nan
262 257 252 246 243 241 239 241 245 251 255 257 260 268 280 283 277 270 263 260 265 264 263 267 265 268 268 265 268 263 262 267 276 280 285 287 288 291 294 nan nan nan nan nan nan nan nan nan nan nan nan nan nan nan nan nan nan nan nan nan nan nan nan nan nan nan nan nan nan nan nan nan nan nan nan nan nan nan nan nan nan nan nan nan nan
257 258 254 251 248 245 242 244 248 254 259 261 264 269 281 285 277 272 271 267 271 275 269 271 271 274 277 275 276 274 273 275 281 284 291 292 290 291 292 nan nan nan nan nan nan nan nan nan nan nan nan nan nan nan nan nan nan nan nan nan nan nan nan nan nan nan nan nan nan nan nan nan nan nan nan nan nan nan nan nan nan nan nan nan nan
261 257 nan nan 249 245 244 246 250 257 262 262 263 270 284 287 282 279 276 277 275 275 272 272 275 282 286 293 285 283 285 282 285 290 294 294 295 295 298 294 nan nan nan nan nan nan nan nan nan nan nan nan nan nan nan nan nan nan nan nan nan nan nan nan nan nan nan nan nan nan nan nan nan nan nan nan nan nan nan nan nan nan nan nan nan
258 257 258 258 252 247 245 245 250 256 260 261 264 270 281 282 280 277 273 277 276 273 271 274 278 284 289 290 284 282 281 287 292 297 296 298 298 299 295 283 nan nan nan nan nan nan nan nan nan nan nan nan nan nan nan nan nan nan nan nan nan nan nan nan nan nan nan nan nan nan nan nan nan nan nan nan nan nan nan nan nan nan nan nan nan
257 nan nan nan 254 249 246 247 252 258 261 263 265 266 273 277 277 274 273 274 275 276 277 281 284 293 298 296 289 282 282 287 290 293 290 296 300 301 293 285 282 nan nan nan nan nan nan nan nan nan nan nan nan nan nan nan nan nan nan nan nan nan nan nan nan nan nan nan nan nan nan nan nan nan nan nan nan nan nan nan nan nan nan nan nan
252 255 nan nan nan 257 251 250 254 259 262 nan 264 265 268 269 271 269 nan 275 278 281 283 286 286 294 300 301 295 289 287 288 290 nan nan nan 295 298 nan nan nan nan nan nan nan nan nan nan nan nan nan nan nan nan nan nan nan nan nan nan nan nan nan nan nan nan nan nan nan nan nan nan nan nan nan nan nan nan nan nan nan nan nan nan nan
nan nan nan nan nan nan nan nan nan nan nan nan nan nan nan nan nan nan nan nan nan nan 274 278 278 285 290 292 293 291 291 291 288 nan nan nan nan nan nan nan nan nan nan nan nan nan nan nan nan nan nan nan nan nan nan nan nan nan nan nan nan nan nan nan nan nan nan nan nan nan nan nan nan nan nan nan nan nan nan nan nan nan nan nan nan
nan nan nan nan nan nan nan nan nan nan nan nan nan nan nan nan nan nan nan nan nan nan nan nan 275 274 279 284 287 288 290 291 289 nan nan nan nan nan nan nan nan nan nan nan nan nan nan nan nan nan nan nan nan nan nan nan nan nan nan nan nan nan nan nan nan nan nan nan nan nan nan nan nan nan nan nan nan nan nan nan nan nan nan nan nan
nan nan nan nan nan nan nan nan nan nan nan nan nan nan nan nan nan nan nan nan nan nan nan nan nan 275 280 282 284 285 280 284 286 nan nan nan nan nan nan nan nan nan nan nan nan nan nan nan nan nan nan nan nan nan nan nan nan nan nan nan nan nan nan nan nan nan nan nan nan nan nan nan nan nan nan nan nan nan nan nan nan nan nan nan nan
nan nan nan nan nan nan nan nan nan nan nan nan nan nan nan nan nan nan nan nan nan nan nan nan nan nan 277 280 281 285 285 285 285 281 nan nan nan nan nan nan nan nan nan nan nan nan nan nan nan nan nan nan nan nan nan nan nan nan nan nan nan nan nan nan nan nan nan nan nan nan nan nan nan nan nan nan nan nan nan nan nan nan nan nan nan
nan nan nan nan nan nan nan nan nan nan nan nan nan nan nan nan nan nan nan nan nan nan nan nan nan nan nan 276 281 285 286 283 280 282 283 286 nan nan nan nan nan nan nan nan nan nan nan nan nan nan nan nan nan nan nan nan nan nan nan nan nan nan nan nan nan nan nan nan nan nan nan nan nan nan nan nan nan nan nan nan nan nan nan nan nan
nan nan nan nan nan nan nan nan nan nan nan nan nan nan nan nan nan nan nan nan nan nan nan nan nan nan nan nan nan 280 283 280 280 279 280 285 281 283 nan nan nan nan nan nan nan nan nan nan nan nan nan nan nan nan nan nan nan nan nan nan nan nan nan nan nan nan nan nan nan nan nan nan nan nan nan nan nan nan nan nan nan nan nan nan nan
nan nan nan nan nan nan nan nan nan nan nan nan nan nan nan nan nan nan nan nan nan nan nan nan nan nan nan nan nan nan 276 277 277 278 278 279 277 280 278 278 nan nan nan nan nan nan nan nan nan nan nan nan nan nan nan nan nan nan nan nan nan nan nan nan nan nan nan nan nan nan nan nan nan nan nan nan nan nan nan nan nan nan nan nan nan
nan nan nan nan nan nan nan nan nan nan nan nan nan nan nan nan nan nan nan nan nan nan nan nan nan nan nan nan nan nan nan 272 272 272 273 275 272 274 275 277 279 nan nan nan nan nan nan nan nan nan nan nan nan nan nan nan nan nan nan nan nan nan nan nan nan nan nan nan nan nan nan nan nan nan nan nan nan nan nan nan nan nan nan nan nan
nan nan nan nan nan nan nan nan nan nan nan nan nan nan nan nan nan nan nan nan nan nan nan nan nan nan nan nan nan nan nan nan nan nan nan nan nan nan 275 nan nan nan nan nan nan nan nan nan nan nan nan nan nan nan nan nan nan nan nan nan nan nan nan nan nan nan nan nan nan nan nan nan nan nan nan nan nan nan nan nan nan nan nan nan nan
nan nan nan nan nan nan nan nan nan nan nan nan nan nan nan nan nan nan nan nan nan nan nan nan nan nan nan nan nan nan nan nan nan nan nan nan nan nan nan nan nan nan nan nan nan nan nan nan nan nan nan nan nan nan nan nan nan nan nan nan nan nan nan nan nan nan nan nan nan nan nan nan nan nan nan nan nan nan nan nan nan nan nan nan nan
nan nan nan nan nan nan nan nan nan nan nan nan nan nan nan nan nan nan nan nan nan nan nan nan nan nan nan nan nan nan nan nan nan nan nan nan nan nan nan nan nan nan nan nan nan nan nan nan nan nan nan nan nan nan nan nan nan nan nan nan nan nan nan nan nan nan nan nan nan nan nan nan nan nan nan nan nan nan nan nan nan nan nan nan nan
nan nan nan nan nan nan nan nan nan nan nan nan nan nan nan nan nan nan nan nan nan nan nan nan nan nan nan 262 262 260 259 259 261 nan nan nan nan nan nan nan nan nan nan nan nan nan nan nan nan nan nan nan nan nan nan nan nan nan nan nan nan nan nan nan nan nan nan nan nan nan nan nan nan nan nan nan nan nan nan nan nan nan nan nan nan
nan nan nan nan nan nan nan nan nan nan nan nan nan nan nan nan nan nan nan nan nan nan nan nan nan nan 246 nan 254 255 nan nan nan 260 265 nan nan nan nan nan nan nan nan nan nan nan nan nan nan nan nan nan nan nan nan nan nan nan nan nan nan nan nan nan nan nan nan nan nan nan nan nan nan nan nan nan nan nan nan nan nan nan nan nan nan
nan nan nan nan nan nan nan nan nan nan nan nan nan nan nan nan nan nan nan nan nan nan nan nan nan nan nan nan nan 246 250 254 256 258 261 264 269 nan nan nan nan nan nan nan nan nan nan nan nan nan 280 nan nan nan nan nan nan nan nan nan nan nan nan nan nan nan nan nan nan nan nan nan nan nan nan nan nan nan nan nan nan nan nan nan nan
nan nan nan nan nan nan nan nan nan nan nan nan nan nan nan nan nan nan nan nan 258 255 nan nan nan nan nan nan nan nan nan nan nan 255 258 262 nan 265 266 268 270 271 nan nan nan nan nan nan nan nan nan 279 nan nan 275 nan nan nan nan nan nan nan nan nan nan nan nan nan nan nan nan nan nan nan nan nan nan nan nan nan nan nan nan nan nan
nan nan nan nan nan nan nan nan nan nan nan nan nan nan nan nan nan nan nan nan nan 256 256 255 nan nan nan nan 253 253 254 256 nan nan nan nan nan nan nan nan 269 270 nan nan nan nan nan nan nan nan nan nan nan nan nan nan nan nan nan nan nan nan nan nan nan nan nan nan nan nan nan nan nan nan nan nan nan nan nan nan nan nan nan nan nan
nan nan nan nan nan nan nan nan nan nan nan nan nan nan nan nan nan nan nan nan nan nan nan nan nan nan nan nan 256 255 256 258 nan nan nan nan nan nan nan 271 272 nan nan nan nan nan nan nan nan nan nan nan nan nan nan nan nan nan nan nan nan nan nan nan nan nan nan nan nan nan nan nan nan nan nan nan nan nan nan nan nan nan nan nan nan
nan nan nan nan nan nan nan nan nan nan nan nan nan nan nan nan nan nan nan nan nan nan nan nan nan nan nan nan nan nan 261 262 263 nan nan nan nan 270 271 271 273 275 275 nan nan nan nan nan nan nan nan nan nan nan nan nan nan nan nan nan nan nan nan nan nan nan nan nan nan nan nan nan nan nan nan nan nan nan nan nan nan nan nan nan nan
nan nan nan nan nan nan nan nan nan nan nan nan nan nan nan nan nan nan nan nan nan nan nan nan nan nan nan nan nan nan 264 262 261 267 nan nan nan 271 272 271 273 274 274 275 nan nan nan nan nan nan nan nan nan nan nan nan nan nan nan nan nan nan nan nan nan nan nan nan nan nan nan nan nan nan nan nan nan nan nan nan nan nan nan nan nan